Location: Kumla
(59.1265°N, 15.1401°E)
Time: 23:42:37
(UTC+01:00)

Vanguard 1 - Pass Details

Date: 12 December 2023
Orbit: 653 x 3825 km, 34.3° (Epoch: 04 March)

Event Time Altitude Azimuth Distance (km) Brightness Sun altitude
Rises 17:55:00 0° 234° (SW) 5,396 15.0 -19.9°
Reaches altitude 10° 17:58:44 10° 223° (SW) 4,819 14.3 -20.4°
Maximum altitude 18:10:18 29° 171° (S) 4,531 13.4 -21.8°
Enters shadow 18:26:27 10° 123° (ESE) 6,791 13.9 -23.9°
